383  
ASUS44 KEWX 030610  
RWRTX  
SOUTH TEXAS REGIONAL WEATHER ROUNDUP  
NATIONAL WEATHER SERVICE AUSTIN/SAN ANTONIO TX  
100 AM CDT WED SEP 03 2014  
 
NOTE: "FAIR" INDICATED FEW OR NO CLOUDS BELOW 12,000 FEET WITH NO  
SIGNIFICANT WEATHER AND/OR S TO VISIBILITY
.  
 
* - THESE STATIONS ARE NOT NWS OR FAA STATIONS...AND ARE NOT SUBJECT  
TO NWS AND FAA QUALITY CONTROL.
 
 
TXZ171-172-183>190-030700-  
TEXAS HILL COUNTRY AND EDWARDS PLATEAU  
 
CITY SKY/WX TMP DP RH WIND PRES REMARKS
 
JUNCTION FAIR 80 69 69 CALM 29.97S  
6HR MIN TEMP: 80; 6HR MAX TEMP: 94;  
 
*LLANO FAIR 81 70 69 S7 30.00S  
BURNET FAIR 79 71 76 S8 30.00S  
6HR MIN TEMP: 79; 6HR MAX TEMP: 93;  
 
*HORSESHOE BAY FAIR 80 69 70 SE3 29.98R  
6HR MIN TEMP: 80; 6HR MAX TEMP: 93;  
 
*KERRVILLE FAIR 76 69 78 SE9 29.99S  
6HR MIN TEMP: 76; 6HR MAX TEMP: 92;  
 
*FREDERICKSBRG FAIR 77 68 72 S5 29.99S  
6HR MIN TEMP: 77; 6HR MAX TEMP: 89;  
 
*ROCKSPRINGS FAIR 77 66 69 SE12G18 30.02S  
*BOERNE STAGE FAIR 77 68 73 SE7 30.00S  
*CASTROVILLE FAIR 80 69 69 SE8 29.97S  
HONDO FAIR 80 71 74 SE12 29.97S  
6HR MIN TEMP: 80; 6HR MAX TEMP: 94;  
 
*UVALDE FAIR 81 71 72 SE10G16 29.95F  
6HR MIN TEMP: 81; 6HR MAX TEMP: 94;  
 
DEL RIO FAIR 85 70 60 SE14G21 29.90R  
6HR MIN TEMP: 85; 6HR MAX TEMP: 97;  
 
LAUGHLIN AFB FAIR 84 71 64 SE13 29.92R  
6HR MIN TEMP: 84; 6HR MAX TEMP: 96;  
 
CARRIZO SPRGS FAIR 81 70 69 SE16 29.90S  

 
 
TXZ173-191>194-202-209-217>225-228-030700-  
CENTRAL AND SOUTH CENTRAL TEXAS  
 
CITY SKY/WX TMP DP RH WIND PRES REMARKS
 
GEORGETOWN FAIR 81 72 74 S8 29.97F  
6HR MIN TEMP: 81; 6HR MAX TEMP: 90;  
 
AUSTIN/BERGSTM FAIR 79 72 79 S10 29.95S  
6HR MIN TEMP: 79; 6HR MAX TEMP: 93;  
 
AUSTIN/MABRY FAIR 80 72 76 SE7G17 29.97R  
6HR MIN TEMP: 80; 6HR MAX TEMP: 90;  
 
*AUSTIN/EXEC FAIR 79 73 83 S7 29.96F  
*LAGO VISTA FAIR 79 71 76 S7 29.99S  
6HR MIN TEMP: 79; 6HR MAX TEMP: 89;  
 
SAN MARCOS FAIR 79 68 69 S7 29.98S  
6HR MIN TEMP: 79; 6HR MAX TEMP: 91;  
 
NEW BRAUNFELS FAIR 79 72 79 S8 29.95S  
6HR MIN TEMP: 79; 6HR MAX TEMP: 93;  
 
RANDOLPH AFB FAIR 78 71 78 SE6 29.97R  
6HR MIN TEMP: 78; 6HR MAX TEMP: 92;  
 
PT SAN ANTONIO FAIR 80 71 75 SE9 29.94S  
6HR MIN TEMP: 80; 6HR MAX TEMP: 93;  
 
SAN ANTONIO FAIR 80 71 74 SE10 29.96S  
6HR MIN TEMP: 80; 6HR MAX TEMP: 92;  
 
STINSON FIELD FAIR 80 71 74 SE10 29.94S  
6HR MIN TEMP: 80; 6HR MAX TEMP: 93;  
 
*PLEASANTON FAIR 80 72 76 E6 29.95R  
6HR MIN TEMP: 80; 6HR MAX TEMP: 92;  
 
*LA GRANGE FAIR 81 76 86 SE6 29.93F  
6HR MIN TEMP: 81; 6HR MAX TEMP: 92;  
 
*GIDDINGS FAIR 79 73 81 S5 29.99F  
6HR MIN TEMP: 79; 6HR MAX TEMP: 91;  
 
*GONZALES FAIR 79 73 82 SE3 29.95S  
6HR MIN TEMP: 79; 6HR MAX TEMP: 90;  
 

 
 
TXZ163>164-176>182-195>201-210>213-226-227-235-030700-  
SOUTHEAST TEXAS  
 
CITY SKY/WX TMP DP RH WIND PRES REMARKS
 
COLLEGE STN FAIR 80 74 81 S8 29.97R  
6HR MIN TEMP: 80; 6HR MAX TEMP: 91;  
 
*BRYAN FAIR 79 74 86 S7 29.97R  
6HR MIN TEMP: 79; 6HR MAX TEMP: 85;  
 
*CALDWELL FAIR 79 75 89 SE5 30.00R  
*CROCKETT FAIR 79 79 100 CALM 30.00F  
*BRENHAM FAIR 80 76 87 SE5 29.97S  
6HR MIN TEMP: 80; 6HR MAX TEMP: 92;  
 
HUNTSVILLE FAIR 79 74 84 CALM 29.98S  
6HR MIN TEMP: 79; 6HR MAX TEMP: 84; 6HR PCP: TRACE;  
 
CONROE FAIR 76 73 91 CALM 29.98S  
6HR MIN TEMP: 75; 6HR MAX TEMP: 88;  
 
HOUSTON BUSH FAIR 79 76 90 SE5 29.96F  
6HR MIN TEMP: 79; 6HR MAX TEMP: 86;  
 
HOUSTON HOBBY FAIR 80 76 87 SE3 29.95F  
6HR MIN TEMP: 80; 6HR MAX TEMP: 86;  
 
*HOUSTON SW AP FAIR 76 76 100 CALM 29.96S  
6HR MIN TEMP: 76; 6HR MAX TEMP: 85;  
 
PEARLAND FAIR 81 76 84 SE5 29.97S  
6HR MIN TEMP: 80; 6HR MAX TEMP: 88;  
 
HOUSTON HOOKS FAIR 80 75 84 SE3 29.96F  
6HR MIN TEMP: 80; 6HR MAX TEMP: 87;  
 
ELLINGTON FLD PTCLDY 82 77 83 SE3 29.97F HX 91  
SUGAR LAND FAIR 80 76 87 SE5 29.95F  
6HR MIN TEMP: 80; 6HR MAX TEMP: 87;  
 
*HOUSTON EXEC FAIR 77 77 100 SE5 29.97S  
*CLEVELAND MUN FAIR 76 75 98 CALM 29.97F FOG  
6HR MIN TEMP: 76; 6HR MAX TEMP: 87;  
 
*WHARTON FAIR 75 73 92 CALM 29.96S  
6HR MIN TEMP: 75; 6HR MAX TEMP: 86;  
 

 
 
TXZ214>216-236>238-030700-  
THE UPPER TEXAS COAST  
 
CITY SKY/WX TMP DP RH WIND PRES REMARKS
 
*ORANGE FAIR 80 80 100 CALM 30.00R  
6HR MIN TEMP: 78; 6HR MAX TEMP: 86; 6HR PCP: 0.02;  
 
PORT ARTHUR FAIR 79 76 90 S6 29.97F  
6HR MIN TEMP: 79; 6HR MAX TEMP: 85;  
 
GALVESTON FAIR 84 78 82 SE12 29.97F HX 95  
6HR MIN TEMP: 84; 6HR MAX TEMP: 86;  
 
ANGLETON FAIR 79 76 90 S5 29.95F  
6HR MIN TEMP: 77; 6HR MAX TEMP: 84;  
 
*BAY CITY FAIR 78 78 100 SE5 29.95S  
PALACIOS FAIR 82 77 84 SE8 29.94S HX 90  
6HR MIN TEMP: 81; 6HR MAX TEMP: 86;  
 

 
 
TXZ229>234-239>247-030700-  
TEXAS COASTAL BEND AND RIO GRANDE PLAINS  
 
CITY SKY/WX TMP DP RH WIND PRES REMARKS
 
VICTORIA FAIR 79 77 94 SE7 29.94F  
6HR MIN TEMP: 79; 6HR MAX TEMP: 88;  
 
*BEEVILLE FAIR 79 76 92 SE7 29.94R  
6HR MIN TEMP: 79; 6HR MAX TEMP: 89;  
 
ROCKPORT FAIR 83 75 77 SE16 29.92S HX 90  
6HR MIN TEMP: 83; 6HR MAX TEMP: 86;  
 
*PORT ARANSAS FAIR 83 76 78 SE9G18 29.92S HX 91  
6HR MIN TEMP: 83; 6HR MAX TEMP: 85;  
 
*PORT LAVACA FAIR 79 76 89 SE7 29.94S  
6HR MIN TEMP: 76; 6HR MAX TEMP: 86; 6HR PCP: 0.11;  
 
*INGLESIDE FAIR 84 74 72 SE14 29.92S HX 91  
CORPUS CHRISTI MOCLDY 81 75 82 SE9 29.92S  
6HR MIN TEMP: 78; 6HR MAX TEMP: 86; 6HR PCP: 0.02;  
 
CORPUS NAS FAIR 84 76 76 SE18 29.91F HX 93  
6HR MIN TEMP: 84; 6HR MAX TEMP: 86;  
 
*ROBSTOWN FAIR 81 72 76 SE6 29.92F  
6HR MIN TEMP: 81; 6HR MAX TEMP: 89;  
 
ALICE LGT RAIN 80 72 76 SE7 29.92R  
6HR MIN TEMP: 80; 6HR MAX TEMP: 87; 6HR PCP: TRACE;  
 
KINGSVILLE NAS MOCLDY 76 74 93 SE12 29.94R  
6HR MIN TEMP: 76; 6HR MAX TEMP: 86; 6HR PCP: TRACE;  
 
COTULLA FAIR 82 71 69 SE14 29.92R  
6HR MIN TEMP: 82; 6HR MAX TEMP: 95;  
 
*FAITH RANCH FAIR 82 72 69 SE12G18 29.92S  
LAREDO FAIR 82 73 74 SE14 29.95R  
6HR MIN TEMP: 82; 6HR MAX TEMP: 90; 6HR PCP: TRACE;  
 

 
 
TXZ248>255-030700-  
DEEP SOUTH TEXAS  
 
CITY SKY/WX TMP DP RH WIND PRES REMARKS
 
BROWNSVILLE FAIR 79 77 94 NE7 29.89S  
6HR MIN TEMP: 78; 6HR MAX TEMP: 85; 6HR PCP: 0.06;  
 
PORT ISABEL FAIR 83 75 77 E8 29.89F HX 90  
6HR MIN TEMP: 79; 6HR MAX TEMP: 87; 6HR PCP: 0.08;  
 
*SOUTH PADRE FAIR 82 77 83 E13 29.88F HX 91  
HARLINGEN FAIR 78 76 93 E8 29.89F  
 
CLICK HERE TO GO TO PREVIOUS BULLETINS.

The Nexlab TX Page Main Text Page